Regional Weather Roundup
Issued by NWS

Home | Current Version | Previous Version | Text Only | Print | Product List | Glossary On
Versions: 1 2 3 4 5 6 7 8 9 10 11 12 13 14 15 16 17 18 19 20 21 22 23 24 25 26 27 28 29 30 31 32 33 34 35 36 37 38 39 40 41 42 43 44 45 46 47 48 49 50
906
ASUS42 KKEY 280510
RWRKEY

FLORIDA REGIONAL WEATHER ROUNDUP FOR THE FLORIDA KEYS
NATIONAL WEATHER SERVICE KEY WEST FLORIDA
100 AM EDT WED SEP 28 2016

...SOUTH FLORIDA AND THE KEYS...

CITY           SKY/WX    TMP DP  RH WIND       PRES   REMARKS
FORT MYERS     CLEAR     75  73  93 SE3       29.97F
SW REGIONAL AP CLEAR     75  72  90 CALM      29.98F
NAPLES         CLEAR     75  74  96 E5        29.97F
MIAMI          MOCLDY    73  72  96 CALM      30.00F
WEST KENDALL   CLEAR     70  70 100 CALM      29.99F
HOMESTEAD      CLEAR     73  72  98 CALM      29.99F
MARATHON       CLEAR     78  75  90 S5        29.99S
BOCA CHICA NAS PTCLDY    79  74  84 S7        29.99F
KEY WEST INTL  PTCLDY    82  76  81 S3        29.99F

...INTERNATIONAL WEATHER...

CITY           SKY/WX    TMP DP  RH WIND       PRES   REMARKS
NASSAU BAHAMAS PTCLDY    79  70  73 CALM      30.02R
CANCUN MEXICO  PTCLDY    77  77 100 NE2       29.98S
COZUMEL MEXICO PTCLDY    79  75  89 CALM      29.96S

ADJACENT COASTAL WATERS...

STATION/POSITION TIME  SKY/WX   TEMP    WIND        PRES    WAVE
                                AIR SEA DIR/SP/G            HT/PER
                 (UTC)          (F)     (DEG/KT/KT) (MB)    (FT/S)
PULASKI SHOAL LI 0500            83     180/  3/  5 1015.7R
SAND KEY         0450            82     200/  5/  7 1016.2F
LONG KEY         0400            81 83  210/  5/  6 1016.1F
FOWEY ROCKS      0400            80 84  190/ 10/ 11 1016.4F

$$




USA.gov is the U.S. government's official web portal to all federal, state and local government web resources and services.